Tracking 28356 objects as of 8-Dec-2023
HD Live streaming from Space Station
objects crossing your sky now

STARLINK-30813

Track STARLINK-30813 now!
10-day predictions
STARLINK-30813 is classified as:


NORAD ID: 58213
Int'l Code: 2023-170H
Perigee: 524.4 km
Apogee: 525.9 km
Inclination: 43.0 °
Period: 95.0 minutes
Semi major axis: 6896 km
RCS: Unknown
Launch date: November 3, 2023
Source: United States (US)
Launch site: AIR FORCE EASTERN TEST RANGE (AFETR)
Your satellite tracking list
Your tracking list is empty




NASA's NSSDC Master Catalog

Two Line Element Set (TLE):
1 58213U 23170H   23341.48572339 -.00001239  00000-0 -51533-4 0  9994
2 58213  43.0007 351.0730 0001105 286.3301  73.7425 15.15972421  6421
Source of the keplerian elements: AFSPC